Demopolis Municipal Airport, AL

6:27 PM CST on February 24, 2018 (GMT -0600)
Demopolis Municipal Airport

Weather History for KDYA - March, 2014

Change the Weather History Date:

Friday, March 21, 2014

  Actual Average (KNMM) Record (KNMM)
Temperature  
Mean Temperature 54 °F -  
Max Temperature 76 °F 68 °F 89 °F (2017)
Min Temperature 33 °F 46 °F 33 °F (2013)
Degree Days  
Heating Degree Days 10    
Growing Degree Days 4 (Base 50)    
Moisture  
Dew Point 35 °F    
Average Humidity 40    
Maximum Humidity 100    
Minimum Humidity 18    
Precipitation  
Precipitation 0.00 in - - ()
Sea Level Pressure  
Sea Level Pressure 30.06 in    
Wind  
Wind Speed 1 mph (South)    
Max Wind Speed 10 mph    
Max Gust Speed 16 mph    
Visibility 10 miles    
Events      
Averages and records for this station are not official NWS values.
T = Trace of Precipitation, MM = Missing Value Source: NWS Daily Summary

Daily Weather History Graph

Daily Weather History Graph

Search for Another Location

Airport or City:

Trip Planner

Search our weather history database for the weather conditions in past years. The results will help you decide how hot, cold, wet, or windy it might be!

Date:

Astronomy

Mar. 21, 2014 Rise Set
Actual Time 6:54 AM CDT 7:04 PM CDT
Civil Twilight 6:29 AM CDT 7:28 PM CDT
Nautical Twilight 6:01 AM CDT 7:57 PM CDT
Astronomical Twilight 5:32 AM CDT 8:26 PM CDT
Moon No Moon Rise 10:00 AM CDT (3/21)
Length of Visible Light 12h 58m
Length of Day
12h 09m
Waning Gibbous, 75% of the Moon is Illuminated
Mar 21
Waning Gibbous
Mar 23
Last Quarter
Mar 30
New
Apr 7
First Quarter
Apr 15
Full

Hourly Weather History & Observations

Time (CDT) Temp. Dew Point Humidity Pressure Visibility Wind Dir Wind Speed Gust Speed Precip Events Conditions
12:15 AM 40.5 °F 40.5 °F 100% 30.10 in 10.0 mi Calm Calm - N/A   Clear
12:35 AM 40.1 °F 40.1 °F 100% 30.10 in 10.0 mi Calm Calm - N/A   Clear
12:55 AM 39.9 °F 39.9 °F 100% 30.09 in 10.0 mi Calm Calm - N/A   Clear
1:15 AM 38.8 °F 38.8 °F 100% 30.10 in 10.0 mi Calm Calm - N/A   Clear
1:35 AM 38.5 °F 38.5 °F 100% 30.10 in 10.0 mi Calm Calm - N/A   Clear
1:55 AM 37.6 °F - N/A% 30.10 in 10.0 mi Calm Calm - N/A   Clear
2:35 AM 37.0 °F - N/A% 30.10 in 10.0 mi Calm Calm - N/A   Clear
2:55 AM 36.9 °F - N/A% 30.09 in 10.0 mi Calm Calm - N/A   Clear
3:15 AM 36.5 °F - N/A% 30.09 in 10.0 mi Calm Calm - N/A   Clear
3:35 AM 35.6 °F - N/A% 30.10 in 10.0 mi Calm Calm - N/A   Clear
3:55 AM 35.6 °F - N/A% 30.09 in 10.0 mi Calm Calm - N/A   Clear
4:15 AM 35.2 °F - N/A% 30.09 in 10.0 mi Calm Calm - N/A   Clear
4:35 AM 35.6 °F - N/A% 30.09 in 10.0 mi Calm Calm - N/A   Clear
4:55 AM 35.1 °F - N/A% 30.09 in 10.0 mi Calm Calm - N/A   Clear
5:15 AM 34.5 °F - N/A% 30.09 in 10.0 mi Calm Calm - N/A   Clear
5:35 AM 34.5 °F - N/A% 30.10 in 7.0 mi Calm Calm - N/A   Clear
5:55 AM 34.3 °F - N/A% 30.10 in 10.0 mi Calm Calm - N/A   Clear
6:15 AM 33.6 °F - N/A% 30.11 in 10.0 mi Calm Calm - N/A   Clear
6:35 AM 34.0 °F - N/A% 30.12 in 10.0 mi Calm Calm - N/A   Clear
6:55 AM 34.3 °F - N/A% 30.12 in 10.0 mi Calm Calm - N/A   Clear
7:15 AM 34.2 °F - N/A% 30.12 in 10.0 mi Calm Calm - N/A   Clear
7:35 AM 36.1 °F - N/A% 30.13 in 10.0 mi Calm Calm - N/A   Clear
7:55 AM 38.8 °F - N/A% 30.13 in 10.0 mi Calm Calm - N/A   Clear
8:15 AM 43.3 °F - N/A% 30.13 in 10.0 mi Calm Calm - N/A   Clear
8:35 AM 46.8 °F 46.8 °F 100% 30.13 in 10.0 mi Calm Calm - N/A   Clear
9:15 AM 56.5 °F 39.6 °F 53% 30.14 in 10.0 mi Calm Calm - N/A   Clear
9:35 AM 61.0 °F 32.0 °F 34% 30.14 in 10.0 mi Calm Calm - N/A   Clear
9:55 AM 63.0 °F 31.3 °F 30% 30.13 in 10.0 mi SE 3.5 mph - N/A   Clear
10:15 AM 64.0 °F 30.6 °F 28% 30.13 in 10.0 mi Calm Calm - N/A   Clear
10:35 AM 65.7 °F 31.5 °F 28% 30.13 in 10.0 mi Calm Calm - N/A   Clear
10:55 AM 67.6 °F 31.3 °F 26% 30.13 in 10.0 mi Calm Calm - N/A   Clear
11:15 AM 68.0 °F 30.4 °F 25% 30.12 in 10.0 mi Calm Calm - N/A   Clear
11:35 AM 68.9 °F 30.6 °F 24% 30.12 in 10.0 mi South 3.5 mph - N/A   Clear
11:55 AM 69.4 °F 29.7 °F 23% 30.12 in 10.0 mi Calm Calm - N/A   Clear
12:15 PM 70.3 °F 29.8 °F 22% 30.11 in 10.0 mi Calm Calm - N/A   Clear
12:35 PM 70.9 °F 27.9 °F 20% 30.10 in 10.0 mi Calm Calm - N/A   Clear
12:55 PM 71.2 °F 27.9 °F 20% 30.09 in 10.0 mi Calm Calm - N/A   Clear
1:15 PM 71.8 °F 27.3 °F 19% 30.08 in 10.0 mi Calm Calm - N/A   Clear
1:35 PM 71.8 °F 26.6 °F 19% 30.06 in 10.0 mi Calm Calm - N/A   Clear
1:55 PM 72.9 °F 29.1 °F 20% 30.04 in 10.0 mi SE 5.8 mph - N/A   Clear
2:15 PM 73.0 °F 28.9 °F 20% 30.03 in 10.0 mi SSE 3.5 mph - N/A   Clear
2:35 PM 74.5 °F 29.1 °F 19% 30.03 in 10.0 mi Calm Calm - N/A   Clear
2:55 PM 74.8 °F 28.9 °F 18% 30.02 in 10.0 mi WSW 5.8 mph - N/A   Clear
3:15 PM 75.0 °F 29.1 °F 18% 30.01 in 10.0 mi SSE 6.9 mph - N/A   Clear
3:35 PM 75.4 °F 29.5 °F 18% 30.00 in 10.0 mi SSE 5.8 mph 16.1 mph N/A   Clear
3:55 PM 75.4 °F 29.3 °F 18% 30.00 in 10.0 mi Calm Calm - N/A   Clear
4:15 PM 75.7 °F 29.1 °F 18% 29.99 in 10.0 mi Calm Calm - N/A   Clear
4:35 PM 75.9 °F 30.0 °F 19% 29.99 in 10.0 mi SSW 10.4 mph - N/A   Clear
4:55 PM 76.1 °F 30.4 °F 19% 29.99 in 10.0 mi South 6.9 mph - N/A   Clear
5:15 PM 75.4 °F 30.2 °F 19% 29.99 in 10.0 mi South 6.9 mph - N/A   Clear
5:35 PM 74.5 °F 31.6 °F 21% 29.99 in 10.0 mi SSW 6.9 mph - N/A   Clear
5:55 PM 73.9 °F 32.4 °F 22% 29.99 in 10.0 mi South 4.6 mph - N/A   Clear
6:15 PM 72.9 °F 32.5 °F 23% 29.99 in 10.0 mi Calm Calm - N/A   Clear
6:35 PM 70.0 °F 36.0 °F 29% 29.99 in 10.0 mi Calm Calm - N/A   Clear
6:55 PM 65.1 °F 43.0 °F 45% 29.99 in 10.0 mi Calm Calm - N/A   Clear
7:15 PM 63.0 °F 42.3 °F 47% 29.99 in 10.0 mi Calm Calm - N/A   Clear
7:35 PM 60.8 °F 43.2 °F 52% 29.98 in 10.0 mi Calm Calm - N/A   Clear
7:55 PM 58.8 °F 42.6 °F 55% 29.98 in 10.0 mi SE 3.5 mph - N/A   Clear
8:15 PM 57.6 °F 42.3 °F 57% 29.98 in 10.0 mi Calm Calm - N/A   Clear
8:35 PM 58.8 °F 41.0 °F 52% 29.99 in 10.0 mi Calm Calm - N/A   Clear
8:55 PM 57.9 °F 42.3 °F 56% 29.99 in 10.0 mi Calm Calm - N/A   Clear
9:15 PM 59.4 °F 40.3 °F 49% 29.99 in 10.0 mi Calm Calm - N/A   Clear
9:35 PM 61.0 °F 38.3 °F 43% 30.00 in 10.0 mi Calm Calm - N/A   Clear
9:55 PM 63.5 °F 38.1 °F 39% 30.01 in 10.0 mi South 4.6 mph - N/A   Clear
10:15 PM 63.5 °F 38.3 °F 39% 30.02 in 10.0 mi Calm Calm - N/A   Clear
10:35 PM 63.7 °F 39.4 °F 41% 30.02 in 10.0 mi South 3.5 mph - N/A   Clear
10:55 PM 63.3 °F 39.4 °F 41% 30.03 in 10.0 mi Calm Calm - N/A   Clear
11:15 PM 58.5 °F 41.5 °F 53% 30.02 in 10.0 mi Calm Calm - N/A   Clear
11:35 PM 61.2 °F 40.6 °F 47% 30.03 in 10.0 mi Calm Calm - N/A   Clear
11:55 PM 59.7 °F 41.2 °F 50% 30.04 in 10.0 mi Calm Calm - N/A   Clear